FW3855 Weather Reports


time (UTC)temp
F
wind
direction
speed
knots
gust
knots
rain 1hr
in
rain 24hr
in
rain mn
in
humidity
%
barometer
mb
20260509213610 89 229 4.3 9.6 0.00 0.00 0.00 1 1015.2
20260509213114 89 252 5.2 12.2 0.00 0.00 0.00 1 1015.1
20260509212611 89 267 4.3 12.2 0.00 0.00 0.00 1 1015.2
20260509212111 91 246 3.5 13.0 0.00 0.00 0.00 1 1015.2
20260509211611 89 324 4.3 13.0 0.00 0.00 0.00 1 1015.1
20260509211110 90 306 4.3 12.2 0.00 0.00 0.00 1 1015.2
20260509210114 89 225 5.2 12.2 0.00 0.00 0.00 1 1015.3
20260509205608 89 281 6.1 13.0 0.00 0.00 0.00 1 1015.4
20260509205100 89 300 5.2 13.0 0.00 0.00 0.00 1 1015.3
20260509204556 89 281 4.3 11.3 0.00 0.00 0.00 1 1015.4
20260509204047 89 299 5.2 13.0 0.00 0.00 0.00 1 1015.6
20260509203542 89 346 5.2 13.0 0.00 0.00 0.00 1 1015.7
20260509202530 89 196 4.3 13.0 0.00 0.00 0.00 1 1015.6
20260509202024 89 305 4.3 13.0 0.00 0.00 0.00 1 1015.7
20260509201519 89 221 4.3 12.2 0.00 0.00 0.00 1 1015.7
20260509201012 89 264 6.1 18.2 0.00 0.00 0.00 1 1015.8
20260509200507 89 194 6.1 18.2 0.00 0.00 0.00 1 1015.7
20260509195959 89 125 4.3 14.8 0.00 0.00 0.00 1 1015.8
20260509195454 89 322 4.3 11.3 0.00 0.00 0.00 1 1015.7
20260509194441 89 264 3.5 15.6 0.00 0.00 0.00 1 1015.8
20260509193935 88 210 3.5 15.6 0.00 0.00 0.00 1 1015.8
20260509192923 89 316 4.3 13.9 0.00 0.00 0.00 1 1016.1
20260509191911 89 250 2.6 7.8 0.00 0.00 0.00 1 1016.0
20260509191406 88 246 2.6 7.8 0.00 0.00 0.00 1 1016.0
20260509190900 89 228 3.5 8.7 0.00 0.00 0.00 1 1016.0
20260509190354 88 298 5.2 10.4 0.00 0.00 0.00 1 1016.2
20260509185847 89 299 4.3 10.4 0.00 0.00 0.00 1 1016.1
20260509184835 88 173 3.5 11.3 0.00 0.00 0.00 2 1016.4
20260509184329 88 29 3.5 7.8 0.00 0.00 0.00 2 1016.1
20260509183824 87 200 3.5 10.4 0.00 0.00 0.00 1 1016.2
20260509183320 87 240 3.5 10.4 0.00 0.00 0.00 1 1016.4
20260509182812 87 300 3.5 7.8 0.00 0.00 0.00 3 1016.2
20260509182307 87 150 3.5 11.3 0.00 0.00 0.00 2 1016.4
20260509181800 87 293 3.5 11.3 0.00 0.00 0.00 2 1016.5
20260509180748 86 276 4.3 12.2 0.00 0.00 0.00 3 1016.7
20260509175735 87 343 3.5 8.7 0.00 0.00 0.00 2 1016.8
20260509175230 87 11 2.6 8.7 0.00 0.00 0.00 2 1016.8
20260509174724 86 189 3.5 8.7 0.00 0.00 0.00 2 1016.7
20260509174218 85 248 3.5 8.7 0.00 0.00 0.00 3 1016.7
20260509173718 85 291 3.5 8.7 0.00 0.00 0.00 3 1016.9
20260509172716 85 198 3.5 8.7 0.00 0.00 0.00 3 1016.8
20260509172214 86 345 3.5 8.7 0.00 0.00 0.00 3 1016.8
20260509171214 84 27 2.6 7.0 0.00 0.00 0.00 4 1016.7
20260509170715 85 25 2.6 7.0 0.00 0.00 0.00 4 1016.7
20260509170214 85 57 2.6 6.1 0.00 0.00 0.00 3 1016.7
20260509165714 85 343 2.6 7.8 0.00 0.00 0.00 3 1016.7
20260509165211 85 350 2.6 7.8 0.00 0.00 0.00 4 1016.7
20260509164710 84 31 2.6 6.1 0.00 0.00 0.00 4 1016.7
20260509164210 85 342 2.6 7.0 0.00 0.00 0.00 4 1016.6
20260509163713 84 304 2.6 7.0 0.00 0.00 0.00 4 1016.5
20260509163208 84 77 2.6 5.2 0.00 0.00 0.00 4 1016.5
20260509162707 84 358 3.5 7.8 0.00 0.00 0.00 4 1016.6
20260509162208 84 94 3.5 7.8 0.00 0.00 0.00 4 1016.7
20260509161707 84 6 2.6 6.1 0.00 0.00 0.00 4 1016.6
20260509161208 83 33 3.5 6.1 0.00 0.00 0.00 4 1016.7
20260509160702 83 14 2.6 6.1 0.00 0.00 0.00 4 1016.7
20260509160154 83 359 2.6 6.1 0.00 0.00 0.00 4 1016.7
20260509155654 82 73 2.6 6.1 0.00 0.00 0.00 5 1016.8
20260509154656 82 349 2.6 5.2 0.00 0.00 0.00 5 1016.7
20260509154153 82 0 2.6 6.1 0.00 0.00 0.00 4 1016.7
20260509153652 82 12 2.6 6.1 0.00 0.00 0.00 5 1016.7
20260509152650 83 113 1.7 5.2 0.00 0.00 0.00 4 1016.6
20260509152151 83 83 1.7 3.5 0.00 0.00 0.00 4 1016.5
20260509151650 83 104 1.7 5.2 0.00 0.00 0.00 4 1016.5
20260509151152 82 90 2.6 5.2 0.00 0.00 0.00 5 1016.5
20260509150652 82 105 2.6 5.2 0.00 0.00 0.00 5 1016.5
20260509150151 82 110 2.6 5.2 0.00 0.00 0.00 5 1016.5
20260509145651 82 86 1.7 4.3 0.00 0.00 0.00 5 1016.5
20260509145151 82 93 1.7 4.3 0.00 0.00 0.00 5 1016.5
20260509144652 82 101 2.6 5.2 0.00 0.00 0.00 5 1016.5
20260509144150 81 71 2.6 5.2 0.00 0.00 0.00 5 1016.4
20260509143650 81 166 2.6 5.2 0.00 0.00 0.00 5 1016.4
20260509143151 81 139 1.7 5.2 0.00 0.00 0.00 5 1016.5
20260509142648 81 129 1.7 5.2 0.00 0.00 0.00 6 1016.2
20260509141647 80 165 2.6 5.2 0.00 0.00 0.00 6 1016.2
20260509135648 81 158 0.0 2.6 0.00 0.00 0.00 6 1016.2
20260509134149 78 198 0.0 1.7 0.00 0.00 0.00 8 1016.0
20260509133644 77 182 0.0 1.7 0.00 0.00 0.00 8 1015.9
20260509133146 75 194 0.0 0.9 0.00 0.00 0.00 9 1015.9
20260509132645 75 194 0.0 3.5 0.00 0.00 0.00 9 1015.9
20260509132143 74 193 0.9 3.5 0.00 0.00 0.00 9 1015.9
20260509131644 73 165 1.7 4.3 0.00 0.00 0.00 10 1015.9
20260509131147 72 172 1.7 4.3 0.00 0.00 0.00 11 1015.7
20260509130646 69 149 0.9 3.5 0.00 0.00 0.00 12 1015.7
20260509130144 69 196 0.9 3.5 0.00 0.00 0.00 12 1015.8
20260509125646 69 195 0.0 2.6 0.00 0.00 0.00 12 1015.7
20260509125144 68 141 0.0 1.7 0.00 0.00 0.00 12 1015.7
20260509124641 69 183 0.0 0.0 0.00 0.00 0.00 11 1015.7
20260509122635 70 176 0.9 3.5 0.00 0.00 0.00 10 1015.6
20260509122132 71 160 1.7 3.5 0.00 0.00 0.00 10 1015.4
20260509121634 71 167 1.7 3.5 0.00 0.00 0.00 10 1015.4
20260509121129 72 172 1.7 6.1 0.00 0.00 0.00 10 1015.4
20260509115632 74 133 1.7 7.8 0.00 0.00 0.00 9 1015.4
20260509115130 75 281 2.6 7.8 0.00 0.00 0.00 9 1015.4
20260509114630 75 269 3.5 7.8 0.00 0.00 0.00 9 1015.3
20260509113629 75 237 3.5 8.7 0.00 0.00 0.00 9 1015.4
20260509113134 75 245 3.5 7.0 0.00 0.00 0.00 9 1015.3
20260509112630 75 230 2.6 7.0 0.00 0.00 0.00 9 1015.4
20260509112122 75 195 1.7 7.0 0.00 0.00 0.00 9 1015.4
20260509111615 74 174 1.7 5.2 0.00 0.00 0.00 9 1015.4
20260509111111 74 263 1.7 5.2 0.00 0.00 0.00 8 1015.4
20260509110607 74 205 1.7 7.8 0.00 0.00 0.00 8 1015.6
20260509110058 75 201 2.6 9.6 0.00 0.00 0.00 8 1015.4
20260509105551 75 264 3.5 9.6 0.00 0.00 0.00 8 1015.4
20260509105048 75 248 3.5 9.6 0.00 0.00 0.00 8 1015.4
20260509104540 75 189 3.5 9.6 0.00 0.00 0.00 8 1015.3
20260509104034 75 147 3.5 10.4 0.00 0.00 0.00 8 1015.4
20260509103528 75 192 3.5 10.4 0.00 0.00 0.00 8 1015.6
20260509103022 75 212 3.5 9.6 0.00 0.00 0.00 8 1015.6
20260509102518 75 234 3.5 9.6 0.00 0.00 0.00 7 1015.6
20260509101504 76 172 5.2 13.9 0.00 0.00 0.00 7 1015.7
20260509100002 76 182 5.2 10.4 0.00 0.00 0.00 6 1015.7
20260509095449 75 198 3.5 7.8 0.00 0.00 0.00 6 1015.7
20260509094440 75 248 3.5 9.6 0.00 0.00 0.00 6 1015.7
20260509093418 75 305 2.6 7.8 0.00 0.00 0.00 6 1015.8
20260509092916 76 248 3.5 13.0 0.00 0.00 0.00 6 1015.8
20260509092407 76 219 3.5 13.9 0.00 0.00 0.00 6 1015.8
20260509091902 76 191 2.6 13.9 0.00 0.00 0.00 6 1015.8
20260509091354 76 217 2.6 9.6 0.00 0.00 0.00 6 1015.7
20260509090341 76 281 2.6 7.8 0.00 0.00 0.00 6 1015.8
20260509085835 76 218 2.6 7.0 0.00 0.00 0.00 5 1015.8
20260509085331 76 226 3.5 9.6 0.00 0.00 0.00 5 1015.8
20260509084836 76 226 4.3 12.2 0.00 0.00 0.00 5 1015.8
20260509083815 76 168 4.3 10.4 0.00 0.00 0.00 4 1015.8
20260509082758 77 208 5.2 10.4 0.00 0.00 0.00 4 1015.8
20260509082255 77 240 5.2 12.2 0.00 0.00 0.00 4 1015.8
20260509081754 77 140 5.2 13.0 0.00 0.00 0.00 4 1015.7
20260509081248 77 148 5.2 13.9 0.00 0.00 0.00 4 1015.8
20260509080739 77 200 5.2 13.9 0.00 0.00 0.00 4 1015.8
20260509080233 77 202 5.2 13.0 0.00 0.00 0.00 4 1015.8
20260509075728 77 244 5.2 15.6 0.00 0.00 0.00 4 1015.8
20260509075225 77 206 4.3 15.6 0.00 0.00 0.00 4 1015.9
20260509074712 77 196 4.3 10.4 0.00 0.00 0.00 3 1015.9
20260509074208 77 233 4.3 13.0 0.00 0.00 0.00 3 1015.9
20260509073702 77 282 4.3 13.0 0.00 0.00 0.00 3 1015.8
20260509073159 77 227 4.3 8.7 0.00 0.00 0.00 3 1015.9
20260509072652 77 184 4.3 10.4 0.00 0.00 0.00 3 1015.9
20260509072142 77 225 3.5 9.6 0.00 0.00 0.00 3 1015.9
20260509071636 77 154 2.6 7.8 0.00 0.00 0.00 3 1015.9
20260509070622 78 302 4.3 11.3 0.00 0.00 0.00 3 1015.9
20260509070127 78 221 4.3 11.3 0.00 0.00 0.00 3 1015.9
20260509065114 78 268 3.5 10.4 0.00 0.00 0.00 3 1015.9
20260509064109 78 215 4.3 9.6 0.00 0.00 0.00 3 1015.9
20260509063612 78 178 5.2 12.2 0.00 0.00 0.00 3 1015.9
20260509063109 78 193 6.1 15.6 0.00 0.00 0.00 3 1015.9
20260509062611 78 162 5.2 15.6 0.00 0.00 0.00 3 1016.0
20260509062107 78 184 3.5 13.9 0.00 0.00 0.00 3 1015.9
20260509061632 78 223 2.6 8.7 0.00 0.00 0.00 3 1015.9
20260509060612 78 159 4.3 13.9 0.00 0.00 0.00 3 1015.9
20260509060111 78 193 4.3 12.2 0.00 0.00 0.00 3 1015.9
20260509055616 78 215 5.2 12.2 0.00 0.00 0.00 3 1015.9
20260509055110 78 172 5.2 13.0 0.00 0.00 0.00 3 1016.0
20260509054609 78 175 4.3 13.0 0.00 0.00 0.00 3 1016.0
20260509054106 78 179 4.3 10.4 0.00 0.00 0.00 3 1016.0
20260509053613 78 223 4.3 10.4 0.00 0.00 0.00 3 1016.0
20260509053102 78 98 3.5 9.6 0.00 0.00 0.00 4 1016.1
20260509052609 78 160 4.3 10.4 0.00 0.00 0.00 4 1016.0
20260509052056 78 183 4.3 10.4 0.00 0.00 0.00 3 1016.1
20260509051557 78 252 5.2 13.0 0.00 0.00 0.00 4 1016.1
20260509051057 78 196 5.2 13.0 0.00 0.00 0.00 4 1016.2
20260509050553 78 143 3.5 8.7 0.00 0.00 0.00 4 1016.1
20260509050058 78 212 3.5 10.4 0.00 0.00 0.00 4 1016.1
20260509045554 78 163 3.5 10.4 0.00 0.00 0.00 5 1016.1
20260509045053 78 241 2.6 7.0 0.00 0.00 0.00 5 1016.1
20260509044553 78 161 2.6 7.0 0.00 0.00 0.00 5 1016.1
20260509044047 78 196 2.6 7.0 0.00 0.00 0.00 5 1016.1
20260509043549 78 165 2.6 7.0 0.00 0.00 0.00 5 1016.0
20260509043052 78 180 3.5 9.6 0.00 0.00 0.00 6 1016.0
20260509042546 78 181 3.5 10.4 0.00 0.00 0.00 5 1016.0
20260509042047 78 193 2.6 10.4 0.00 0.00 0.00 5 1015.9
20260509041545 78 230 2.6 8.7 0.00 0.00 0.00 6 1015.8
20260509041048 78 176 2.6 8.7 0.00 0.00 0.00 6 1015.8
20260509040545 78 236 1.7 4.3 0.00 0.00 0.00 6 1015.8
20260509040045 78 218 2.6 10.4 0.00 0.00 0.00 6 1015.7
20260509035046 78 127 1.7 7.0 0.00 0.00 0.00 6 1015.7
20260509034546 78 236 1.7 7.0 0.00 0.00 0.00 6 1015.6
20260509034044 78 199 1.7 5.2 0.00 0.00 0.00 6 1015.4
20260509033554 79 182 2.6 5.2 0.00 0.00 0.00 6 1015.4
20260509033045 79 202 3.5 8.7 0.00 0.00 0.00 6 1015.3
20260509032548 80 245 2.6 8.7 0.00 0.00 0.00 5 1015.3
20260509032045 80 238 1.7 7.0 0.00 0.00 0.00 6 1015.2
20260509031047 80 250 1.7 6.1 0.00 0.00 0.00 6 1015.1
20260509030544 79 311 0.9 5.2 0.00 0.00 0.00 6 1015.1
20260509030043 80 219 0.9 4.3 0.00 0.00 0.00 6 1015.1
20260509025551 80 207 1.7 7.0 0.00 0.00 0.00 6 1015.0
20260509025044 80 244 2.6 7.0 0.00 0.00 0.00 6 1015.0
20260509023601 81 243 2.6 8.7 0.00 0.00 0.00 5 1014.9
20260509022552 81 53 3.5 7.8 0.00 0.00 0.00 5 1014.6
20260509022051 82 262 3.5 7.8 0.00 0.00 0.00 5 1014.6
20260509020035 83 245 0.9 4.3 0.00 0.00 0.00 3 1014.5
20260509015534 83 290 0.9 6.1 0.00 0.00 0.00 3 1014.5
20260509015033 84 289 1.7 6.1 0.00 0.00 0.00 2 1014.4
20260509014532 85 229 1.7 6.1 0.00 0.00 0.00 2 1014.4
20260509014040 86 310 2.6 7.8 0.00 0.00 0.00 1 1014.3
20260509013534 86 287 2.6 7.8 0.00 0.00 0.00 1 1014.3
20260509013036 87 307 1.7 6.1 0.00 0.00 0.00 1 1014.3
20260509012034 87 294 3.5 7.8 0.00 0.00 0.00 1 1014.3
20260509010533 87 3 3.5 8.7 0.00 0.00 0.00 1 1014.3
20260509010029 87 294 3.5 8.7 0.00 0.00 0.00 1 1014.4
20260509005524 87 235 3.5 8.7 0.00 0.00 0.00 1 1014.2
20260509005020 87 20 2.6 7.8 0.00 0.00 0.00 1 1014.3
20260509004512 87 309 3.5 7.0 0.00 0.00 0.00 1 1014.3
20260509004007 88 298 4.3 13.0 0.00 0.00 0.00 1 1014.3
20260509003501 88 309 5.2 13.0 0.00 0.00 0.00 1 1014.5
20260509003002 88 283 3.5 13.0 0.00 0.00 0.00 1 1014.4
20260509002447 89 332 1.7 7.8 0.00 0.00 0.00 1 1014.4
20260509001941 88 327 2.6 8.7 0.00 0.00 0.00 1 1014.3
20260509001436 88 303 4.3 11.3 0.00 0.00 0.00 1 1014.4
20260509000930 88 314 3.5 11.3 0.00 0.00 0.00 1 1014.5
20260509000425 89 306 3.5 8.7 0.00 0.00 0.00 1 1014.4
20260508235919 88 285 5.2 10.4 0.00 0.00 0.00 1 1014.5
20260508235413 88 311 4.3 11.3 0.00 0.00 0.00 1 1014.5
20260508234907 89 358 3.5 11.3 0.00 0.00 0.00 1 1014.5
20260508233347 89 293 2.6 6.1 0.00 0.00 0.00 1 1014.6
20260508232843 88 330 4.3 12.2 0.00 0.00 0.00 1 1014.5
20260508231830 88 285 4.3 9.6 0.00 0.00 0.00 1 1014.6
20260508230312 88 290 3.5 7.8 0.00 0.00 0.00 1 1014.8
20260508225306 88 278 6.1 13.0 0.00 0.00 0.00 1 1014.9
20260508224755 89 288 4.3 13.0 0.00 0.00 0.00 1 1014.8
20260508224247 89 314 3.5 7.8 0.00 0.00 0.00 1 1014.8
20260508223744 88 354 3.5 7.8 0.00 0.00 0.00 1 1014.9
20260508223236 88 94 4.3 9.6 0.00 0.00 0.00 1 1014.9
20260508222729 88 309 6.1 12.2 0.00 0.00 0.00 1 1015.1
20260508221213 88 31 5.2 11.3 0.00 0.00 0.00 1 1015.1
20260508220706 89 319 5.2 13.9 0.00 0.00 0.00 1 1015.2
20260508215653 88 318 4.3 10.4 0.00 0.00 0.00 1 1015.2
20260508215147 88 330 3.5 9.6 0.00 0.00 0.00 1 1015.4
20260508214641 89 340 4.3 9.6 0.00 0.00 0.00 1 1015.4